Location: Avon Lake
(41.5219°N, 93.5010°W)
Time: 14:20:13
(UTC+00:00)

BlueWalker 3 - Pass Details

Date: 08 December 2022
Orbit: 499 x 517 km, 53.2° (Epoch: 01 February)

Event Time Altitude Azimuth Distance (km) Brightness Sun altitude
Rises 00:05:30 0° 312° (NW) 2,627 6.0 -14.8°
Maximum altitude 00:11:22 28° 24° (NNE) 987 3.0 -15.8°
Enters shadow 00:11:53 27° 39° (NE) 1,009 3.0 -15.9°
